Content
SEND FEEDBACK

Daily
Averages
Monthly
Summary
United States of America

CAMAK, GEORGIA


Home > North America > United States > Georgia
Elevation: 525 feet     Latitude: 33 25N     Longitude: 082 39W

WEATHER
 
SELECT A DAY
Number of Records: 255,508;   Date Range: 6/20/03 - 9/29/14
 
SHARE

PRINT THIS DATA

[ ← Previous Day ]
WEATHER ALMANAC - FEBRUARY 5, 2013
[ Next Day → ]
[ °C ]   °F
Weather ElementAverageHighLow
Temperature47.4 °F64.4 °F (2:55 pm)30.2 °F (7:15 am)
Dewpoint42.2 °F49.8 °F (5:15 pm)30.2 °F (7:15 am)
Humidity84.4 %100 % (4:15 am)58 % (2:55 pm)
Barometer30.05 in30.09 in (9:35 am)30.01 in (5:55 pm)
Wind Speed2.5 mph13.8 mph (12:35 pm)
Wind Gust19.6 mph (12:55 pm)
Weather ElementAverage
Visibility10 mi
Wind DirectionE (84.6 °)

Weather ElementTotal
Precipitation---
Heating Degree Days17.7 (Base 65)
Averaged from 67 records on February 5, 2013
WEATHER CONDITIONS BREAKOUT
WIND DIRECTION BREAKOUT
WEATHER BY HOUR - FEBRUARY 5, 2013
[ °C ]   °F
Local TimeTemperatureDewpointHumidityBarometerVisibilityWind DirectionWind SpeedGust SpeedPrecipitationEventsConditions
12:35 AM36.5 °F35.4 °F96 %30.06 in10.0 miCalmClear
12:55 AM37.4 °F35.8 °F94 %30.06 in10.0 miCalmClear
1:15 AM37.9 °F35.2 °F90 %30.06 in10.0 miCalmClear
1:35 AM37.4 °F35.2 °F92 %30.06 in10.0 miCalmClear
1:55 AM36.7 °F35.1 °F94 %30.05 in10.0 miCalmClear
2:15 AM37.4 °F34.7 °F90 %30.04 in10.0 miCalmClear
2:35 AM36.9 °F34.7 °F92 %30.03 in10.0 miCalmClear
2:55 AM36.0 °F33.8 °F92 %30.03 in10.0 miCalmClear
3:15 AM35.4 °F33.4 °F92 %30.04 in10.0 miCalmClear
3:35 AM34.3 °F33.1 °F95 %30.04 in10.0 miCalmClear
3:55 AM34.3 °F33.4 °F97 %30.04 in10.0 miCalmClear
4:15 AM32.4 °F32.4 °F100 %30.04 in10.0 miCalmClear
4:35 AM33.1 °F32.9 °F99 %30.04 in10.0 miCalmClear
4:55 AM32.5 °F32.4 °F99 %30.03 in10.0 miCalmClear
5:15 AM32.5 °F32.4 °F99 %30.03 in10.0 miCalmClear
5:35 AM32.0 °F32.0 °F100 %30.04 in10.0 miCalmClear
5:55 AM32.5 °F32.2 °F99 %30.04 in10.0 miCalmClear
6:15 AM32.0 °F32.0 °F100 %30.04 in10.0 miCalmClear
6:35 AM32.4 °F32.2 °F99 %30.05 in10.0 miCalmClear
6:55 AM32.2 °F32.2 °F100 %30.06 in10.0 miCalmClear
7:15 AM30.2 °F30.2 °F100 %30.07 in10.0 miCalmClear
7:35 AM30.9 °F30.9 °F100 %30.08 in10.0 miCalmScattered Clouds
7:55 AM32.5 °F32.5 °F100 %30.08 in10.0 miCalmScattered Clouds
8:15 AM37.4 °F35.2 °F92 %30.08 in10.0 miCalmScattered Clouds
8:35 AM40.1 °F36.0 °F85 %30.08 in10.0 miSSW (200°)3.5 mphMostly Cloudy
8:55 AM41.7 °F37.6 °F85 %30.08 in10.0 miSSW (200°)3.5 mphOvercast
9:15 AM46.6 °F39.4 °F76 %30.08 in10.0 miSSW (200°)3.5 mphMostly Cloudy
9:35 AM49.3 °F39.7 °F70 %30.09 in10.0 miSSW (210°)3.5 mphScattered Clouds
9:55 AM52.0 °F41.2 °F67 %30.08 in10.0 miSSW (200°)3.5 mphScattered Clouds
10:15 AM54.3 °F42.8 °F65 %30.09 in10.0 miWest (260°)4.6 mphClear
10:55 AM58.1 °F45.9 °F64 %30.09 in10.0 miWest (260°)4.6 mphMostly Cloudy
11:15 AM61.7 °F48.9 °F63 %30.08 in10.0 miWest (260°)6.9 mphMostly Cloudy
11:55 AM61.5 °F48.2 °F62 %30.07 in10.0 miSW (220°)9.2 mphOvercast
12:15 PM61.7 °F48.6 °F62 %30.07 in10.0 miWSW (250°)6.9 mphOvercast
12:35 PM61.7 °F48.6 °F62 %30.06 in10.0 miWest (280°)13.8 mphOvercast
12:55 PM61.2 °F49.1 °F65 %30.05 in10.0 miWNW (300°)10.4 mph19.6 mphOvercast
1:15 PM62.8 °F48.4 °F59 %30.04 in10.0 miWSW (250°)6.9 mphOvercast
1:55 PM62.4 °F48.0 °F59 %30.03 in10.0 miWest (280°)9.2 mphOvercast
2:15 PM62.2 °F48.4 °F60 %30.03 in10.0 miWSW (250°)6.9 mphOvercast
2:35 PM62.1 °F48.7 °F62 %30.03 in10.0 miWest (270°)8.1 mphOvercast
2:55 PM64.4 °F49.1 °F58 %30.03 in10.0 miWest (260°)9.2 mphOvercast
3:15 PM63.0 °F49.3 °F61 %30.02 in10.0 miWSW (250°)10.4 mph18.4 mphOvercast
3:35 PM62.4 °F49.3 °F62 %30.02 in10.0 miWest (280°)13.8 mphOvercast
3:55 PM62.8 °F49.3 °F61 %30.02 in10.0 miWest (280°)10.4 mphMostly Cloudy
4:15 PM63.1 °F49.5 °F61 %30.02 in10.0 miWest (280°)8.1 mphScattered Clouds
4:35 PM62.1 °F49.3 °F63 %30.02 in10.0 miNorthMostly Cloudy
4:55 PM61.7 °F49.3 °F64 %30.03 in10.0 miWest (260°)4.6 mphOvercast
5:15 PM61.3 °F49.8 °F66 %30.02 in10.0 miCalmOvercast
5:55 PM57.7 °F49.5 °F74 %30.01 in10.0 miCalmScattered Clouds
6:15 PM57.2 °F49.5 °F75 %30.01 in10.0 miCalmClear
6:35 PM53.2 °F48.6 °F84 %30.02 in10.0 miCalmClear
6:55 PM51.8 °F48.2 °F88 %30.03 in10.0 miCalmClear
7:15 PM50.7 °F48.2 °F91 %30.03 in10.0 miCalmClear
7:35 PM50.5 °F48.2 °F92 %30.03 in10.0 miCalmScattered Clouds
7:55 PM48.0 °F46.4 °F94 %30.04 in10.0 miCalmScattered Clouds
8:15 PM47.3 °F46.6 °F97 %30.05 in10.0 miCalmScattered Clouds
8:35 PM47.5 °F46.8 °F97 %30.05 in10.0 miCalmMostly Cloudy
8:55 PM47.7 °F47.3 °F99 %30.05 in10.0 miCalmOvercast
9:15 PM48.4 °F47.3 °F96 %30.06 in10.0 miCalmOvercast
9:35 PM48.4 °F47.5 °F97 %30.06 in10.0 miCalmOvercast
9:55 PM48.4 °F47.5 °F97 %30.06 in10.0 miCalmOvercast
10:15 PM48.7 °F48.4 °F99 %30.07 in10.0 miCalmOvercast
10:35 PM49.1 °F49.1 °F100 %30.07 in10.0 miSouth (170°)3.5 mphOvercast
10:55 PM49.1 °F49.1 °F100 %30.08 in10.0 miCalmMostly Cloudy
11:15 PM49.1 °F49.1 °F100 %30.07 in10.0 miCalmOvercast
11:35 PM48.9 °F48.9 °F100 %30.08 in10.0 miCalmOvercast
11:55 PM48.4 °F48.4 °F100 %30.08 in10.0 miCalmOvercast
Hourly data recorded from KHQU, located miles away from Camak, Georgia







STORIES FROM OUR PARTNERS